GW1992 Weather Reports


time (UTC)temp
C
wind
direction
speed
KPH
gust
KPH
rain 1hr
cm
rain 24hr
cm
rain mn
cm
humidity
%
barometer
mb
20260510104149 10 67 0.0 0.0 0.00 0.00 0.00 95 1015.0
20260510103646 10 75 0.0 0.0 0.00 0.00 0.00 95 1015.0
20260510103143 10 69 0.0 0.0 0.00 0.00 0.00 95 1015.0
20260510102638 10 69 0.0 0.0 0.00 0.00 0.00 95 1014.8
20260510102134 10 77 0.0 0.0 0.00 0.00 0.00 95 1014.7
20260510101632 10 77 0.0 0.0 0.00 0.00 0.00 95 1014.7
20260510101129 10 76 0.0 0.0 0.00 0.00 0.00 95 1014.6
20260510100625 10 75 0.0 0.0 0.00 0.00 0.00 95 1014.4
20260510100123 10 84 0.0 0.0 0.00 0.00 0.00 95 1014.4
20260510095619 10 74 0.0 0.0 0.00 0.00 0.00 95 1014.7
20260510095119 10 73 0.0 0.0 0.00 0.00 0.00 95 1014.5
20260510094617 10 74 0.0 0.0 0.00 0.00 0.00 95 1014.6
20260510094113 10 59 0.0 0.0 0.00 0.00 0.00 95 1014.4
20260510093610 10 96 0.0 0.0 0.00 0.00 0.00 95 1014.4
20260510093107 10 82 0.0 0.0 0.00 0.00 0.00 95 1014.6
20260510092604 10 81 0.0 0.0 0.00 0.00 0.00 95 1014.4
20260510092103 10 72 0.0 0.0 0.00 0.00 0.00 95 1014.4
20260510091600 10 84 0.0 0.0 0.00 0.00 0.00 95 1014.1
20260510091056 10 89 0.0 1.6 0.00 0.00 0.00 95 1014.1
20260510090554 10 81 0.0 0.0 0.00 0.00 0.00 94 1014.2
20260510090049 10 77 0.0 0.0 0.00 0.00 0.00 95 1014.4
20260510085544 10 74 0.0 0.0 0.00 0.00 0.00 94 1014.3
20260510085040 10 83 0.0 0.0 0.00 0.00 0.00 95 1014.5
20260510084537 10 74 0.0 1.6 0.00 0.00 0.00 94 1014.6
20260510084034 10 75 0.0 0.0 0.00 0.00 0.00 94 1014.5
20260510083530 10 44 0.0 1.6 0.00 0.00 0.00 94 1014.4
20260510083027 10 73 0.0 4.8 0.00 0.00 0.00 94 1014.4
20260510082524 10 77 0.0 1.6 0.00 0.00 0.00 94 1014.5
20260510082019 10 33 0.0 4.8 0.00 0.00 0.00 94 1014.8
20260510081514 10 77 0.0 1.6 0.00 0.00 0.00 94 1014.4
20260510081010 10 29 3.2 3.2 0.00 0.00 0.00 94 1014.6
20260510080509 10 67 0.0 4.8 0.00 0.00 0.00 94 1014.5
20260510080006 10 82 0.0 3.2 0.00 0.00 0.00 94 1014.2
20260510075504 10 71 0.0 0.0 0.00 0.00 0.00 94 1014.2
20260510075000 10 75 0.0 0.0 0.00 0.00 0.00 94 1013.8
20260510074458 10 75 0.0 0.0 0.00 0.00 0.00 94 1013.8
20260510073953 10 75 0.0 0.0 0.00 0.00 0.00 94 1013.8
20260510073449 10 74 0.0 0.0 0.00 0.00 0.00 94 1013.9
20260510072946 10 76 0.0 0.0 0.00 0.00 0.00 94 1014.0
20260510072443 10 69 0.0 0.0 0.00 0.00 0.00 94 1013.8
20260510071938 10 72 0.0 1.6 0.00 0.00 0.00 94 1013.8
20260510071435 10 74 0.0 0.0 0.00 0.00 0.00 94 1013.7
20260510070933 10 77 0.0 1.6 0.00 0.00 0.00 94 1013.8
20260510070430 10 67 0.0 1.6 0.00 0.00 0.00 94 1013.9
20260510065926 10 76 0.0 3.2 0.00 0.00 0.00 94 1013.8
20260510065422 10 57 0.0 4.8 0.00 0.00 0.00 94 1014.0
20260510064919 9 12 3.2 8.0 0.00 0.00 0.00 94 1013.9
20260510064417 9 70 1.6 9.7 0.00 0.00 0.00 94 1013.5
20260510063913 9 71 0.0 3.2 0.00 0.00 0.00 94 1013.6
20260510063409 10 80 0.0 3.2 0.00 0.00 0.00 94 1013.5
20260510062907 10 65 0.0 1.6 0.00 0.00 0.00 94 1013.6
20260510062402 10 74 0.0 0.0 0.00 0.00 0.00 94 1013.4
20260510061858 10 71 0.0 0.0 0.00 0.00 0.00 94 1013.4
20260510061354 10 76 0.0 0.0 0.00 0.00 0.00 94 1013.2
20260510060850 10 77 0.0 0.0 0.00 0.00 0.00 94 1013.4
20260510060347 10 75 0.0 0.0 0.00 0.00 0.00 94 1013.5
20260510055843 10 72 0.0 0.0 0.00 0.00 0.00 94 1013.5
20260510055343 10 57 0.0 1.6 0.00 0.00 0.00 94 1013.6
20260510054837 9 74 0.0 0.0 0.00 0.00 0.00 94 1013.7
20260510054333 9 72 0.0 0.0 0.00 0.00 0.00 93 1013.5
20260510053827 9 74 0.0 0.0 0.00 0.00 0.00 93 1013.8
20260510053323 8 76 0.0 0.0 0.00 0.00 0.00 93 1013.5
20260510052820 8 75 0.0 0.0 0.00 0.00 0.00 93 1013.7
20260510052316 8 75 0.0 0.0 0.00 0.00 0.00 93 1013.7
20260510051812 8 74 0.0 0.0 0.00 0.00 0.00 93 1013.7
20260510051309 8 75 0.0 0.0 0.00 0.00 0.00 93 1013.8
20260510050805 8 75 0.0 0.0 0.00 0.00 0.00 93 1013.6
20260510050257 8 75 0.0 0.0 0.00 0.00 0.00 93 1013.7
20260510045753 8 74 0.0 0.0 0.00 0.00 0.00 93 1013.7
20260510045250 8 73 0.0 0.0 0.00 0.00 0.00 93 1013.8
20260510044748 9 75 0.0 0.0 0.00 0.00 0.00 93 1013.9
20260510044245 9 70 0.0 0.0 0.00 0.00 0.00 93 1014.1
20260510043740 9 70 0.0 0.0 0.00 0.00 0.00 93 1013.9
20260510043237 9 75 0.0 0.0 0.00 0.00 0.00 92 1014.0
20260510042734 9 76 0.0 0.0 0.00 0.00 0.00 92 1014.0
20260510042230 9 76 0.0 0.0 0.00 0.00 0.00 92 1014.0
20260510041727 9 76 0.0 0.0 0.00 0.00 0.00 92 1014.1
20260510041224 10 76 0.0 0.0 0.00 0.00 0.00 92 1014.1
20260510040721 10 78 0.0 0.0 0.00 0.00 0.00 92 1014.2
20260510040218 9 75 0.0 0.0 0.00 0.00 0.00 92 1014.1
20260510035713 10 76 0.0 0.0 0.00 0.56 0.56 92 1014.2
20260510035210 10 78 0.0 0.0 0.00 0.56 0.56 92 1014.1
20260510034705 10 75 0.0 0.0 0.00 0.56 0.56 92 1014.1
20260510034203 10 76 0.0 0.0 0.00 0.56 0.56 91 1014.2
20260510033659 10 75 0.0 0.0 0.00 0.56 0.56 91 1014.0
20260510033157 10 77 0.0 0.0 0.00 0.56 0.56 91 1014.0
20260510032653 10 68 0.0 0.0 0.00 0.56 0.56 91 1013.9
20260510032149 10 75 0.0 0.0 0.00 0.56 0.56 91 1013.9
20260510031643 10 75 0.0 0.0 0.00 0.56 0.56 91 1014.0
20260510031140 10 68 0.0 0.0 0.00 0.56 0.56 91 1013.6
20260510030635 11 74 0.0 0.0 0.00 0.56 0.56 91 1013.5
20260510030133 11 54 0.0 0.0 0.00 0.56 0.56 91 1013.6
20260510025630 11 58 0.0 0.0 0.00 0.56 0.56 91 1013.7
20260510025127 11 69 0.0 0.0 0.00 0.56 0.56 90 1013.6
20260510024623 11 53 0.0 1.6 0.00 0.56 0.56 90 1013.6
20260510024120 11 67 0.0 1.6 0.00 0.56 0.56 90 1013.5
20260510023616 11 74 0.0 0.0 0.00 0.56 0.56 89 1013.7
20260510023114 11 71 0.0 0.0 0.00 0.56 0.56 89 1013.6
20260510022614 11 74 0.0 0.0 0.00 0.56 0.56 89 1013.6
20260510022108 11 71 0.0 0.0 0.00 0.56 0.56 89 1013.5
20260510021604 11 60 0.0 0.0 0.00 0.56 0.56 89 1013.5
20260510021102 11 64 0.0 0.0 0.00 0.56 0.56 88 1013.6
20260510020555 11 65 0.0 0.0 0.00 0.56 0.56 88 1013.6
20260510020052 11 67 0.0 0.0 0.00 0.56 0.56 88 1013.5
20260510015548 11 63 0.0 0.0 0.00 0.56 0.56 87 1013.5
20260510015044 11 67 0.0 0.0 0.00 0.56 0.56 87 1013.4
20260510014540 11 74 0.0 0.0 0.00 0.56 0.56 87 1013.2
20260510014038 12 66 0.0 0.0 0.00 0.56 0.56 86 1013.4
20260510013532 11 64 0.0 0.0 0.00 0.56 0.56 86 1013.4
20260510013028 11 74 0.0 0.0 0.00 0.56 0.56 86 1013.4
20260510012522 11 61 0.0 0.0 0.00 0.56 0.56 86 1013.4
20260510012019 12 70 0.0 0.0 0.00 0.56 0.56 85 1013.4
20260510011518 12 90 0.0 0.0 0.00 0.56 0.56 85 1013.2
20260510011014 12 62 0.0 0.0 0.00 0.56 0.56 85 1013.3
20260510010512 12 67 0.0 0.0 0.00 0.56 0.56 85 1013.4
20260510010008 12 82 0.0 0.0 0.00 0.56 0.56 84 1013.2
20260510005504 12 60 0.0 1.6 0.00 0.56 0.56 84 1013.1
20260510005002 12 75 0.0 0.0 0.00 0.56 0.56 84 1013.2
20260510004459 12 66 0.0 3.2 0.00 0.56 0.56 84 1012.9
20260510003957 12 58 1.6 1.6 0.00 0.56 0.56 84 1013.1
20260510003453 12 73 0.0 0.0 0.00 0.56 0.56 83 1013.0
20260510002949 12 72 0.0 1.6 0.00 0.56 0.56 83 1012.9
20260510002445 12 75 0.0 0.0 0.00 0.56 0.56 82 1012.9
20260510001942 12 73 0.0 1.6 0.00 0.56 0.56 82 1013.1
20260510001439 12 75 0.0 0.0 0.00 0.56 0.56 82 1013.0
20260510000937 12 82 0.0 0.0 0.00 0.56 0.56 81 1012.9
20260510000433 13 78 0.0 0.0 0.00 0.56 0.56 81 1012.8
20260509235929 13 80 0.0 0.0 0.00 0.56 0.56 81 1012.7
20260509235426 13 74 0.0 1.6 0.00 0.56 0.56 81 1012.8
20260509234922 13 78 0.0 0.0 0.00 0.56 0.56 81 1012.9
20260509234419 13 115 1.6 4.8 0.00 0.56 0.56 80 1012.7
20260509233917 13 76 0.0 1.6 0.00 0.56 0.56 80 1012.8
20260509233415 13 76 0.0 0.0 0.00 0.56 0.56 80 1012.9
20260509232910 13 84 0.0 1.6 0.00 0.56 0.56 80 1012.9
20260509232409 13 88 0.0 1.6 0.00 0.56 0.56 80 1012.9
20260509231904 13 84 0.0 3.2 0.00 0.56 0.56 80 1013.1
20260509231401 13 83 0.0 3.2 0.00 0.56 0.56 80 1013.0
20260509230859 13 81 1.6 3.2 0.00 0.56 0.56 81 1012.9
20260509230355 13 81 1.6 3.2 0.00 0.56 0.56 81 1012.9
20260509225851 13 97 0.0 4.8 0.00 0.56 0.56 82 1013.0
20260509225348 13 89 1.6 3.2 0.00 0.56 0.56 84 1013.1
20260509224844 13 142 1.6 3.2 0.00 0.56 0.56 86 1012.9
20260509224340 13 143 4.8 9.7 0.00 0.56 0.56 88 1013.0
20260509223837 13 81 0.0 3.2 0.00 0.56 0.56 89 1012.9
20260509223334 13 113 3.2 9.7 0.00 0.56 0.56 90 1012.9
20260509222831 13 112 1.6 3.2 0.00 0.56 0.56 90 1013.0
20260509222326 13 96 3.2 4.8 0.00 0.56 0.56 91 1012.9
20260509221821 13 80 1.6 3.2 0.00 0.56 0.56 91 1012.9
20260509221319 13 76 3.2 8.0 0.00 0.56 0.56 91 1012.9
20260509220819 13 131 6.4 8.0 0.00 0.56 0.56 91 1012.7
20260509220316 13 105 4.8 9.7 0.00 0.56 0.56 91 1012.8
20260509215811 13 134 1.6 3.2 0.00 0.56 0.56 91 1012.8
20260509215309 13 84 3.2 4.8 0.00 0.56 0.56 91 1012.9
20260509214805 13 105 1.6 3.2 0.00 0.56 0.56 91 1012.6
20260509214302 13 114 3.2 4.8 0.00 0.56 0.56 91 1012.9
20260509213759 13 76 1.6 3.2 0.00 0.56 0.56 91 1012.9
20260509213255 13 99 0.0 3.2 0.00 0.56 0.56 91 1012.9
20260509212753 13 78 0.0 3.2 0.00 0.56 0.56 91 1012.9
20260509212250 13 70 0.0 0.0 0.00 0.56 0.56 91 1012.9
20260509211745 13 74 0.0 1.6 0.00 0.56 0.56 91 1013.0
20260509211242 13 71 0.0 0.0 0.00 0.56 0.56 91 1013.0
20260509210738 13 79 0.0 1.6 0.00 0.56 0.56 91 1013.0
20260509210236 13 72 0.0 3.2 0.00 0.56 0.56 91 1012.9
20260509205735 14 71 0.0 1.6 0.00 0.56 0.56 91 1013.0
20260509205230 14 19 1.6 1.6 0.00 0.56 0.56 91 1012.9
20260509204726 13 86 1.6 3.2 0.00 0.56 0.56 91 1013.0
20260509204223 13 57 0.0 3.2 0.00 0.56 0.56 91 1013.0
20260509203719 14 55 3.2 3.2 0.00 0.56 0.56 91 1013.0
20260509203217 13 77 0.0 3.2 0.00 0.56 0.56 91 1013.1
20260509202713 13 73 0.0 1.6 0.00 0.56 0.56 91 1012.9
20260509202208 13 10 1.6 4.8 0.00 0.56 0.56 91 1012.8
20260509201703 13 27 3.2 3.2 0.00 0.56 0.56 91 1012.9
20260509201200 13 52 0.0 0.0 0.43 0.56 0.56 91 1012.8
20260509200656 12 72 0.0 1.6 0.43 0.56 0.56 90 1013.1
20260509200152 12 64 0.0 1.6 0.00 0.48 0.48 90 1013.2
20260509195648 12 63 1.6 4.8 0.00 0.48 0.48 90 1012.9
20260509195143 12 15 3.2 3.2 0.00 0.48 0.48 90 1013.0
20260509194642 12 89 0.0 1.6 0.00 0.48 0.48 90 1013.3
20260509194140 12 43 1.6 3.2 0.18 0.48 0.48 90 1013.4
20260509193635 12 30 1.6 3.2 0.18 0.48 0.48 89 1013.4
20260509193126 12 52 3.2 4.8 0.00 0.46 0.46 89 1013.6
20260509192623 12 64 0.0 3.2 0.00 0.46 0.46 89 1013.5
20260509192118 12 75 0.0 8.0 0.00 0.46 0.46 89 1013.7
20260509191612 12 88 0.0 3.2 0.18 0.46 0.46 89 1013.7
20260509191109 12 69 1.6 3.2 0.30 0.43 0.43 88 1013.8
20260509190606 12 43 1.6 3.2 0.18 0.41 0.41 88 1014.1
20260509190103 12 51 3.2 4.8 0.13 0.38 0.38 88 1014.0
20260509185601 12 34 3.2 4.8 0.13 0.38 0.38 88 1014.0
20260509185056 12 55 3.2 9.7 0.00 0.36 0.36 88 1014.2
20260509184555 13 55 1.6 3.2 0.00 0.36 0.36 88 1014.1
20260509184051 13 65 1.6 3.2 0.00 0.36 0.36 88 1014.2
20260509183547 13 63 1.6 3.2 0.00 0.36 0.36 88 1014.2
20260509183043 12 77 0.0 1.6 0.00 0.36 0.36 87 1014.3
20260509182539 12 69 1.6 4.8 0.18 0.36 0.36 87 1014.3
20260509182036 12 82 0.0 4.8 0.30 0.36 0.36 87 1014.2
20260509181535 12 27 4.8 4.8 0.13 0.33 0.33 87 1014.4
20260509181031 12 56 0.0 0.0 0.18 0.30 0.30 86 1014.4
20260509180527 12 350 3.2 3.2 0.18 0.30 0.30 86 1014.4
20260509180025 12 72 0.0 3.2 0.00 0.28 0.28 86 1014.5
20260509175520 12 90 0.0 3.2 0.00 0.28 0.28 86 1014.5
20260509175017 13 326 3.2 4.8 0.13 0.28 0.28 85 1014.5
20260509174514 13 94 1.6 1.6 0.00 0.25 0.25 85 1014.6
20260509174009 13 104 1.6 1.6 0.18 0.25 0.25 85 1014.5
20260509173503 13 91 1.6 3.2 0.13 0.23 0.23 85 1014.6
20260509173000 13 88 1.6 4.8 0.18 0.20 0.20 84 1014.4
20260509172457 13 68 0.0 1.6 0.00 0.18 0.18 84 1014.2
20260509171952 13 76 1.6 8.0 0.13 0.18 0.18 84 1014.2
20260509171449 13 305 3.2 4.8 0.00 0.15 0.15 83 1014.1
20260509170945 13 78 0.0 0.0 0.00 0.15 0.15 83 1014.1
20260509170441 13 75 0.0 1.6 0.00 0.15 0.15 83 1014.1
20260509165936 13 72 1.6 3.2 0.00 0.15 0.15 82 1014.0
20260509165431 13 59 1.6 3.2 0.18 0.15 0.15 82 1014.3
20260509164926 13 60 1.6 1.6 0.18 0.15 0.15 82 1014.2
20260509164423 13 41 1.6 3.2 0.00 0.13 0.13 81 1014.3
20260509163919 13 71 0.0 1.6 0.18 0.13 0.13 81 1014.2
20260509163416 13 79 1.6 3.2 0.18 0.13 0.13 80 1014.2
20260509162915 13 30 1.6 3.2 0.13 0.10 0.10 79 1014.4
20260509162414 13 52 1.6 1.6 0.18 0.08 0.08 79 1014.5
20260509161909 14 57 1.6 3.2 0.30 0.08 0.08 77 1014.5
20260509161406 14 53 3.2 3.2 0.13 0.05 0.05 75 1014.4
20260509160902 15 105 1.6 11.3 0.18 0.03 0.03 73 1014.8
20260509160357 15 148 4.8 4.8 0.00 0.00 0.00 72 1014.9
20260509155853 15 80 0.0 1.6 0.00 0.00 0.00 72 1015.0
20260509155350 15 163 1.6 4.8 0.00 0.00 0.00 71 1015.0
20260509154846 15 278 4.8 4.8 0.00 0.00 0.00 70 1014.9
20260509154343 15 314 3.2 4.8 0.00 0.00 0.00 70 1014.8
20260509153839 15 86 4.8 11.3 0.00 0.00 0.00 68 1015.0
20260509153337 16 328 4.8 4.8 0.00 0.00 0.00 68 1015.0
20260509152833 16 172 4.8 8.0 0.00 0.00 0.00 67 1015.0
20260509152329 16 272 4.8 9.7 0.00 0.00 0.00 66 1015.0
20260509151827 16 67 6.4 9.7 0.00 0.00 0.00 65 1014.7
20260509151323 16 215 8.0 11.3 0.00 0.00 0.00 65 1014.8
20260509150822 16 263 4.8 8.0 0.00 0.00 0.00 65 1015.0
20260509150318 16 102 4.8 9.7 0.00 0.00 0.00 65 1014.8
20260509145816 16 115 1.6 8.0 0.00 0.00 0.00 65 1014.8
20260509145316 16 124 3.2 8.0 0.00 0.00 0.00 65 1014.8
20260509144812 16 102 3.2 8.0 0.00 0.00 0.00 65 1014.7
20260509144309 16 88 3.2 3.2 0.00 0.00 0.00 66 1014.7
20260509143806 16 209 6.4 14.5 0.00 0.00 0.00 66 1014.7
20260509143304 16 124 3.2 3.2 0.00 0.00 0.00 66 1014.8
20260509142800 16 23 1.6 3.2 0.00 0.00 0.00 65 1014.6
20260509142256 16 105 1.6 3.2 0.00 0.00 0.00 65 1014.5
20260509141751 16 236 6.4 8.0 0.00 0.00 0.00 65 1014.3
20260509141249 16 226 4.8 11.3 0.00 0.00 0.00 65 1014.4
20260509140745 16 99 1.6 1.6 0.00 0.00 0.00 66 1014.4
20260509140243 16 175 1.6 3.2 0.00 0.00 0.00 66 1014.4
20260509135740 16 254 6.4 9.7 0.00 0.00 0.00 65 1014.4
20260509135238 16 180 4.8 4.8 0.00 0.00 0.00 66 1014.4
20260509134734 16 116 0.0 1.6 0.00 0.00 0.00 67 1014.3
20260509134232 16 125 6.4 9.7 0.00 0.00 0.00 67 1014.4
20260509133729 16 100 1.6 4.8 0.00 0.00 0.00 68 1014.2
20260509133226 15 94 1.6 4.8 0.00 0.00 0.00 68 1014.1
20260509132725 15 138 4.8 4.8 0.00 0.00 0.00 69 1014.4
20260509132223 15 92 1.6 4.8 0.00 0.00 0.00 69 1014.3
20260509131719 15 84 1.6 3.2 0.00 0.00 0.00 70 1014.4
20260509131215 15 92 1.6 3.2 0.00 0.00 0.00 70 1014.4
20260509130711 15 104 4.8 8.0 0.00 0.00 0.00 70 1014.2
20260509130207 15 99 1.6 3.2 0.00 0.00 0.00 70 1014.3
20260509125704 15 118 0.0 3.2 0.00 0.00 0.00 71 1014.4
20260509125201 15 112 3.2 4.8 0.00 0.00 0.00 71 1014.3
20260509124657 14 116 1.6 3.2 0.00 0.00 0.00 72 1014.4
20260509124154 14 76 1.6 1.6 0.00 0.00 0.00 72 1014.5
20260509123653 13 93 1.6 3.2 0.00 0.00 0.00 72 1014.5
20260509123149 13 94 1.6 4.8 0.00 0.00 0.00 72 1014.5
20260509122645 13 103 1.6 3.2 0.00 0.00 0.00 73 1014.6
20260509122142 13 85 0.0 1.6 0.00 0.00 0.00 73 1014.6
20260509121638 13 71 0.0 1.6 0.00 0.00 0.00 73 1014.3
20260509121137 13 90 1.6 3.2 0.00 0.00 0.00 73 1014.3
20260509120634 13 82 0.0 3.2 0.00 0.00 0.00 73 1014.3
20260509120132 13 89 1.6 3.2 0.00 0.00 0.00 72 1014.5
20260509115629 12 87 1.6 1.6 0.00 0.00 0.00 72 1014.5
20260509115127 12 91 1.6 3.2 0.00 0.00 0.00 72 1014.5
20260509114625 12 85 0.0 1.6 0.00 0.00 0.00 72 1014.3
20260509114123 12 89 1.6 4.8 0.00 0.00 0.00 72 1014.4
20260509113621 12 96 0.0 3.2 0.00 0.00 0.00 72 1014.3
20260509113118 12 138 3.2 4.8 0.00 0.00 0.00 72 1014.3
20260509112615 12 128 3.2 3.2 0.00 0.00 0.00 72 1014.3
20260509112112 12 112 4.8 4.8 0.00 0.00 0.00 72 1014.3
20260509111609 12 93 1.6 1.6 0.00 0.00 0.00 71 1014.3
20260509111106 12 117 1.6 3.2 0.00 0.00 0.00 71 1014.4
20260509110603 12 96 3.2 3.2 0.00 0.00 0.00 71 1014.4
20260509110100 12 77 0.0 0.0 0.00 0.00 0.00 71 1014.3
20260509105558 12 78 1.6 3.2 0.00 0.00 0.00 71 1014.3
20260509105055 12 80 1.6 3.2 0.00 0.00 0.00 70 1014.3